Location: Unspecified
(0.0000°N, 0.0000°E)
Time: 19:32:39
(UTC+00:00)

Vanguard 1 - Pass Details

Date: 20 April 2026
Orbit: 654 x 3817 km, 34.2° (Epoch: 18 May)

Event Time Altitude Azimuth Distance (km) Brightness Sun altitude
Rises 04:26:26 0° 318° (NW) 7,112 14.2 -22.7°
Reaches altitude 10° 04:32:49 10° 327° (NNW) 5,568 13.7 -21.1°
Maximum altitude 04:45:06 30° 22° (NNE) 2,998 12.8 -18.1°
Drops below altitude 10° 04:52:38 10° 80° (E) 3,383 14.2 -16.2°
Sets 04:55:24 0° 91° (E) 4,025 14.8 -15.6°
